FW2255 Weather Reports


time (UTC)temp
F
wind
direction
speed
knots
gust
knots
rain 1hr
in
rain 24hr
in
rain mn
in
humidity
%
barometer
mb
20260510153057 75 165 1.7 4.3 0.00 0.00 0.00 36 1014.0
20260510152556 75 165 1.7 3.5 0.00 0.00 0.00 36 1014.1
20260510152054 75 165 0.9 3.5 0.00 0.00 0.00 39 1014.1
20260510151555 75 165 0.9 3.5 0.00 0.00 0.00 39 1014.1
20260510151054 74 165 0.0 3.5 0.00 0.00 0.00 41 1014.0
20260510150556 74 165 0.0 1.7 0.00 0.00 0.00 42 1014.0
20260510145558 73 165 0.0 1.7 0.00 0.00 0.00 48 1014.0
20260510145054 72 0 0.0 1.7 0.00 0.00 0.00 52 1014.1
20260510144616 71 165 0.0 1.7 0.00 0.00 0.00 53 1013.9
20260510144056 71 0 0.0 1.7 0.00 0.00 0.00 55 1013.8
20260510143554 70 165 0.0 1.7 0.00 0.00 0.00 56 1013.8
20260510143059 70 0 0.0 1.7 0.00 0.00 0.00 57 1013.9
20260510142554 69 0 0.0 1.7 0.00 0.00 0.00 58 1013.7
20260510142053 69 165 0.0 1.7 0.00 0.00 0.00 60 1013.8
20260510141556 68 0 0.0 3.5 0.00 0.00 0.00 62 1013.7
20260510141056 67 165 0.9 3.5 0.00 0.00 0.00 62 1013.7
20260510140556 67 165 0.9 3.5 0.00 0.00 0.00 62 1013.7
20260510140055 66 198 0.0 0.9 0.00 0.00 0.00 65 1013.6
20260510135556 65 0 0.0 0.0 0.00 0.00 0.00 66 1013.7
20260510135056 65 0 0.0 0.0 0.00 0.00 0.00 66 1013.8
20260510134555 64 0 0.0 2.6 0.00 0.00 0.00 66 1013.6
20260510134056 64 0 0.0 2.6 0.00 0.00 0.00 65 1013.6
20260510133558 63 103 0.0 0.9 0.00 0.00 0.00 67 1013.7
20260510133053 63 0 0.0 2.6 0.00 0.00 0.00 67 1013.6
20260510132556 63 0 0.0 2.6 0.00 0.00 0.00 69 1013.7
20260510132057 62 103 0.9 2.6 0.00 0.00 0.00 70 1013.6
20260510131555 62 102 0.0 1.7 0.00 0.00 0.00 71 1013.6
20260510131055 61 0 0.0 1.7 0.00 0.00 0.00 72 1013.5
20260510130557 60 102 0.0 0.9 0.00 0.00 0.00 73 1013.7
20260510130057 60 0 0.0 0.0 0.00 0.00 0.00 71 1013.7
20260510125556 59 0 0.0 0.0 0.00 0.00 0.00 71 1013.7
20260510125055 59 0 0.0 0.0 0.00 0.00 0.00 73 1013.8
20260510124610 58 0 0.0 0.0 0.00 0.00 0.00 75 1013.8
20260510124056 58 0 0.0 0.0 0.00 0.00 0.00 75 1013.9
20260510123556 58 0 0.0 0.0 0.00 0.00 0.00 77 1014.0
20260510123055 57 0 0.0 0.0 0.00 0.00 0.00 80 1013.8
20260510122559 57 0 0.0 0.0 0.00 0.00 0.00 82 1013.8
20260510122056 57 0 0.0 0.0 0.00 0.00 0.00 83 1013.8
20260510121554 56 0 0.0 0.0 0.00 0.00 0.00 83 1013.8
20260510121056 56 0 0.0 0.0 0.00 0.00 0.00 83 1013.7
20260510120555 56 0 0.0 0.0 0.00 0.00 0.00 83 1013.6
20260510120105 55 0 0.0 0.0 0.00 0.00 0.00 83 1013.5
20260510115556 55 0 0.0 0.0 0.00 0.00 0.00 84 1013.5
20260510115056 55 0 0.0 0.0 0.00 0.00 0.00 84 1013.4
20260510114556 54 0 0.0 0.0 0.00 0.00 0.00 84 1013.4
20260510114056 54 0 0.0 0.0 0.00 0.00 0.00 83 1013.4
20260510113555 53 0 0.0 0.0 0.00 0.00 0.00 82 1013.3
20260510113055 53 0 0.0 0.0 0.00 0.00 0.00 81 1013.3
20260510112556 53 0 0.0 0.0 0.00 0.00 0.00 80 1013.2
20260510112055 53 0 0.0 0.0 0.00 0.00 0.00 80 1013.2
20260510111554 52 0 0.0 0.0 0.00 0.00 0.00 80 1013.0
20260510111052 52 0 0.0 0.0 0.00 0.00 0.00 80 1012.8
20260510110559 52 0 0.0 0.0 0.00 0.00 0.00 80 1012.7
20260510110056 52 0 0.0 0.0 0.00 0.00 0.00 80 1012.5
20260510105555 52 0 0.0 0.0 0.00 0.00 0.00 80 1012.7
20260510105056 52 0 0.0 0.0 0.00 0.00 0.00 79 1012.6
20260510104605 52 0 0.0 0.0 0.00 0.00 0.00 79 1012.5
20260510104056 52 0 0.0 0.0 0.00 0.00 0.00 79 1012.5
20260510103556 52 0 0.0 0.0 0.00 0.00 0.00 79 1012.4
20260510103102 52 0 0.0 0.0 0.00 0.00 0.00 79 1012.4
20260510102559 53 0 0.0 0.0 0.00 0.00 0.00 79 1012.3
20260510102056 53 0 0.0 0.0 0.00 0.00 0.00 80 1012.3
20260510101554 52 0 0.0 0.9 0.00 0.00 0.00 80 1012.3
20260510101055 52 0 0.0 1.7 0.00 0.00 0.00 79 1012.3
20260510100559 52 0 0.0 1.7 0.00 0.00 0.00 79 1012.3
20260510100058 52 0 0.0 1.7 0.00 0.00 0.00 78 1012.3
20260510095556 52 18 0.0 0.9 0.00 0.00 0.00 78 1012.3
20260510095055 52 0 0.0 0.9 0.00 0.00 0.00 78 1012.2
20260510094608 52 0 0.0 0.0 0.00 0.00 0.00 76 1012.2
20260510094056 52 0 0.0 0.0 0.00 0.00 0.00 75 1012.2
20260510093555 52 0 0.0 0.0 0.00 0.00 0.00 75 1012.1
20260510093117 52 0 0.0 0.0 0.00 0.00 0.00 75 1012.2
20260510092555 52 0 0.0 0.0 0.00 0.00 0.00 75 1012.2
20260510092055 52 0 0.0 0.0 0.00 0.00 0.00 75 1012.1
20260510091600 52 0 0.0 0.0 0.00 0.00 0.00 75 1012.2
20260510091055 52 0 0.0 0.0 0.00 0.00 0.00 75 1012.1
20260510090600 53 0 0.0 0.0 0.00 0.00 0.00 75 1012.2
20260510090056 53 0 0.0 0.0 0.00 0.00 0.00 74 1012.0
20260510085556 53 0 0.0 0.0 0.00 0.00 0.00 75 1011.8
20260510085055 53 0 0.0 0.0 0.00 0.00 0.00 75 1011.8
20260510084600 53 0 0.0 0.0 0.00 0.00 0.00 75 1011.7
20260510084056 53 0 0.0 0.0 0.00 0.00 0.00 75 1011.7
20260510083555 53 0 0.0 0.0 0.00 0.00 0.00 75 1011.6
20260510083057 53 0 0.0 0.0 0.00 0.00 0.00 75 1011.5
20260510082559 53 0 0.0 0.0 0.00 0.00 0.00 74 1011.5
20260510082055 54 0 0.0 0.0 0.00 0.00 0.00 74 1011.5
20260510081556 54 0 0.0 0.0 0.00 0.00 0.00 75 1011.5
20260510081058 54 0 0.0 0.0 0.00 0.00 0.00 75 1011.4
20260510080556 54 0 0.0 0.0 0.00 0.00 0.00 75 1011.4
20260510080055 54 0 0.0 0.0 0.00 0.00 0.00 75 1011.4
20260510075555 54 0 0.0 0.0 0.00 0.00 0.00 75 1011.3
20260510075055 54 0 0.0 0.0 0.00 0.00 0.00 75 1011.2
20260510074556 54 0 0.0 0.0 0.00 0.00 0.00 75 1011.4
20260510074055 54 0 0.0 0.0 0.00 0.00 0.00 75 1011.2
20260510073555 54 0 0.0 0.0 0.00 0.00 0.00 75 1011.1
20260510073058 54 0 0.0 0.0 0.00 0.00 0.00 75 1011.0
20260510072556 54 0 0.0 0.0 0.00 0.00 0.00 73 1011.0
20260510072056 54 0 0.0 0.0 0.00 0.00 0.00 72 1011.0
20260510071556 54 0 0.0 0.0 0.00 0.00 0.00 71 1011.0
20260510071055 54 0 0.0 0.0 0.00 0.00 0.00 71 1010.9
20260510070555 54 0 0.0 0.0 0.00 0.00 0.00 71 1010.7
20260510070056 55 0 0.0 0.0 0.00 0.00 0.00 71 1010.7
20260510065559 55 0 0.0 0.0 0.00 0.00 0.00 70 1010.7
20260510065056 55 0 0.0 0.0 0.00 0.00 0.00 70 1010.7
20260510064556 55 0 0.0 0.0 0.00 0.00 0.00 69 1010.7
20260510064055 55 0 0.0 0.0 0.00 0.00 0.00 69 1010.5
20260510063557 55 0 0.0 0.0 0.00 0.00 0.00 69 1010.4
20260510063054 55 0 0.0 0.0 0.00 0.00 0.00 69 1010.4
20260510062559 55 0 0.0 0.0 0.00 0.00 0.00 69 1010.7
20260510062055 55 0 0.0 0.0 0.00 0.00 0.00 69 1010.7
20260510061555 56 0 0.0 0.0 0.00 0.00 0.00 68 1010.6
20260510061055 56 0 0.0 0.0 0.00 0.00 0.00 68 1010.6
20260510060555 56 0 0.0 0.0 0.00 0.00 0.00 68 1010.6
20260510060055 56 0 0.0 0.0 0.00 0.00 0.00 68 1010.6
20260510055555 56 0 0.0 0.0 0.00 0.00 0.00 68 1010.7
20260510055056 56 0 0.0 0.0 0.00 0.00 0.00 68 1010.6
20260510054555 56 0 0.0 0.0 0.00 0.00 0.00 68 1010.5
20260510054055 56 0 0.0 0.0 0.00 0.00 0.00 67 1010.5
20260510053555 56 0 0.0 0.0 0.00 0.00 0.00 67 1010.4
20260510053101 56 0 0.0 0.0 0.00 0.00 0.00 67 1010.6
20260510052555 57 0 0.0 0.0 0.00 0.00 0.00 66 1010.6
20260510052055 57 0 0.0 0.0 0.00 0.00 0.00 66 1010.7
20260510051559 57 0 0.0 0.0 0.00 0.00 0.00 66 1010.7
20260510051056 57 0 0.0 0.0 0.00 0.00 0.00 66 1010.5
20260510050600 57 0 0.0 0.0 0.00 0.00 0.00 66 1010.5
20260510050055 57 0 0.0 0.0 0.00 0.00 0.00 66 1010.6
20260510045555 57 0 0.0 0.0 0.00 0.00 0.00 65 1010.6
20260510045055 58 0 0.0 0.0 0.00 0.00 0.00 65 1010.6
20260510044553 58 0 0.0 0.0 0.00 0.00 0.00 65 1010.4
20260510044055 58 0 0.0 0.0 0.00 0.00 0.00 65 1010.3
20260510043555 58 0 0.0 0.0 0.00 0.00 0.00 65 1010.2
20260510043103 58 0 0.0 0.0 0.00 0.00 0.00 65 1010.3
20260510042555 58 0 0.0 0.0 0.00 0.00 0.00 64 1010.4
20260510042057 58 0 0.0 0.0 0.00 0.00 0.00 64 1010.6
20260510041554 58 0 0.0 0.0 0.00 0.00 0.00 64 1010.4
20260510041055 58 0 0.0 0.0 0.00 0.00 0.00 64 1010.5
20260510040557 58 0 0.0 0.0 0.00 0.00 0.00 64 1010.5
20260510040055 58 0 0.0 0.0 0.00 0.00 0.00 63 1010.6
20260510035555 59 0 0.0 0.0 0.00 0.00 0.00 63 1010.4
20260510035057 59 0 0.0 0.0 0.00 0.00 0.00 62 1010.4
20260510034554 59 0 0.0 0.0 0.00 0.00 0.00 62 1010.5
20260510034056 59 0 0.0 0.0 0.00 0.00 0.00 62 1010.2
20260510033557 59 0 0.0 0.0 0.00 0.00 0.00 62 1010.3
20260510033104 59 0 0.0 0.0 0.00 0.00 0.00 62 1010.3
20260510032555 60 0 0.0 0.0 0.00 0.00 0.00 61 1010.2
20260510032055 60 0 0.0 0.0 0.00 0.00 0.00 61 1010.1
20260510031555 60 0 0.0 0.0 0.00 0.00 0.00 60 1010.2
20260510031054 60 0 0.0 0.0 0.00 0.00 0.00 60 1010.2
20260510030555 60 0 0.0 0.0 0.00 0.00 0.00 60 1010.1
20260510030056 61 0 0.0 0.0 0.00 0.00 0.00 60 1010.1
20260510025555 61 0 0.0 0.0 0.00 0.00 0.00 60 1010.0
20260510025055 61 0 0.0 0.0 0.00 0.00 0.00 60 1010.1
20260510024557 61 0 0.0 0.0 0.00 0.00 0.00 59 1009.9
20260510024055 61 0 0.0 0.0 0.00 0.00 0.00 59 1009.9
20260510023554 62 0 0.0 0.0 0.00 0.00 0.00 59 1009.8
20260510023055 62 0 0.0 0.0 0.00 0.00 0.00 59 1009.9
20260510022556 62 0 0.0 0.0 0.00 0.00 0.00 58 1009.9
20260510022055 62 0 0.0 0.0 0.00 0.00 0.00 58 1009.8
20260510021554 62 0 0.0 0.0 0.00 0.00 0.00 58 1009.9
20260510021055 63 0 0.0 0.0 0.00 0.00 0.00 57 1009.8
20260510020555 63 0 0.0 0.0 0.00 0.00 0.00 58 1009.6
20260510020058 63 0 0.0 0.0 0.00 0.00 0.00 57 1009.6
20260510015556 63 0 0.0 0.0 0.00 0.00 0.00 57 1009.5
20260510015055 63 0 0.0 0.0 0.00 0.00 0.00 57 1009.5
20260510014556 63 0 0.0 0.0 0.00 0.00 0.00 57 1009.4
20260510014055 64 0 0.0 0.0 0.00 0.00 0.00 57 1009.4
20260510013555 64 0 0.0 0.0 0.00 0.00 0.00 57 1009.4
20260510013057 64 0 0.0 0.0 0.00 0.00 0.00 56 1009.2
20260510012556 64 0 0.0 0.0 0.00 0.00 0.00 56 1009.1
20260510012055 64 0 0.0 0.0 0.00 0.00 0.00 56 1009.1
20260510011555 64 0 0.0 0.0 0.00 0.00 0.00 56 1009.2
20260510011054 65 0 0.0 0.0 0.00 0.00 0.00 55 1009.0
20260510010554 65 0 0.0 0.0 0.00 0.00 0.00 55 1009.0
20260510010054 65 0 0.0 0.0 0.00 0.00 0.00 55 1008.9
20260510005555 66 0 0.0 0.0 0.00 0.00 0.00 57 1008.9
20260510005054 66 0 0.0 0.0 0.00 0.00 0.00 56 1008.9
20260510004559 66 0 0.0 0.0 0.00 0.00 0.00 54 1008.8
20260510004055 66 0 0.0 0.0 0.00 0.00 0.00 54 1008.8
20260510003555 66 0 0.0 0.0 0.00 0.00 0.00 54 1008.7
20260510003057 66 0 0.0 0.0 0.00 0.00 0.00 53 1008.8
20260510002556 67 0 0.0 0.0 0.00 0.00 0.00 52 1008.8
20260510002055 67 0 0.0 0.0 0.00 0.00 0.00 52 1008.6
20260510001553 67 0 0.0 0.0 0.00 0.00 0.00 52 1008.6
20260510001055 68 0 0.0 0.0 0.00 0.00 0.00 51 1008.7
20260510000555 68 0 0.0 0.0 0.00 0.00 0.00 51 1008.5
20260509235557 69 0 0.0 0.0 0.00 0.00 0.00 52 1008.4
20260509235054 69 0 0.0 0.0 0.00 0.00 0.00 51 1008.3
20260509234557 69 0 0.0 0.0 0.00 0.00 0.00 52 1008.3
20260509234054 70 0 0.0 0.0 0.00 0.00 0.00 51 1008.1
20260509233554 70 0 0.0 0.0 0.00 0.00 0.00 51 1008.3
20260509233056 70 0 0.0 0.0 0.00 0.00 0.00 51 1008.3
20260509232554 70 0 0.0 0.0 0.00 0.00 0.00 51 1008.2
20260509232055 71 0 0.0 0.0 0.00 0.00 0.00 52 1008.3
20260509231555 71 0 0.0 0.0 0.00 0.00 0.00 52 1008.2
20260509231056 71 0 0.0 0.0 0.00 0.00 0.00 51 1008.2
20260509230557 71 0 0.0 0.0 0.00 0.00 0.00 50 1008.1
20260509230100 72 0 0.0 0.0 0.00 0.00 0.00 48 1008.2
20260509225555 72 0 0.0 0.0 0.00 0.00 0.00 49 1008.3
20260509225055 72 0 0.0 0.0 0.00 0.00 0.00 49 1008.0
20260509224602 72 0 0.0 0.0 0.00 0.00 0.00 49 1008.2
20260509224055 72 0 0.0 0.0 0.00 0.00 0.00 49 1008.2
20260509223558 72 0 0.0 0.0 0.00 0.00 0.00 50 1008.3
20260509223101 71 0 0.0 0.0 0.00 0.00 0.00 48 1008.3
20260509222555 71 0 0.0 0.0 0.00 0.00 0.00 51 1008.3
20260509222054 71 0 0.0 0.0 0.00 0.00 0.00 48 1008.3
20260509221555 71 0 0.0 0.0 0.00 0.00 0.00 49 1008.3
20260509221055 71 0 0.0 0.0 0.00 0.00 0.00 49 1008.3
20260509220555 71 0 0.0 0.0 0.00 0.00 0.00 49 1008.3
20260509220056 71 0 0.0 0.0 0.00 0.00 0.00 49 1008.3
20260509215555 71 0 0.0 0.0 0.00 0.00 0.00 49 1008.4
20260509215055 71 0 0.0 0.0 0.00 0.00 0.00 48 1008.2
20260509214610 72 0 0.0 0.0 0.00 0.00 0.00 46 1008.3
20260509214054 72 0 0.0 0.0 0.00 0.00 0.00 46 1008.2
20260509213554 72 0 0.0 0.0 0.00 0.00 0.00 44 1008.2
20260509213056 73 0 0.0 0.0 0.00 0.00 0.00 43 1008.2
20260509212554 73 0 0.0 0.0 0.00 0.00 0.00 43 1008.2
20260509212054 72 0 0.0 0.0 0.00 0.00 0.00 43 1008.1
20260509211559 72 0 0.0 0.0 0.00 0.00 0.00 44 1008.1
20260509211054 72 0 0.0 0.0 0.00 0.00 0.00 45 1008.2
20260509210554 72 0 0.0 0.0 0.00 0.00 0.00 45 1008.1
20260509210107 72 0 0.0 0.0 0.00 0.00 0.00 45 1008.1
20260509205554 72 0 0.0 1.7 0.00 0.00 0.00 45 1008.1
20260509205055 72 0 0.0 2.6 0.00 0.00 0.00 45 1008.0
20260509204557 72 175 0.9 2.6 0.00 0.00 0.00 45 1007.9
20260509204055 72 0 0.0 2.6 0.00 0.00 0.00 46 1008.0
20260509203558 72 175 0.9 2.6 0.00 0.00 0.00 47 1008.1
20260509203105 72 175 0.9 3.5 0.00 0.00 0.00 46 1008.0
20260509202554 73 0 0.9 3.5 0.00 0.00 0.00 44 1008.0
20260509202055 73 185 0.0 2.6 0.00 0.00 0.00 47 1008.1
20260509201559 73 272 0.9 2.6 0.00 0.00 0.00 46 1008.2
20260509201054 73 136 0.9 2.6 0.00 0.00 0.00 46 1008.2
20260509200556 73 121 0.0 2.6 0.00 0.00 0.00 47 1008.3
20260509200056 72 92 0.0 0.9 0.00 0.00 0.00 48 1008.4
20260509195554 72 0 0.0 0.0 0.00 0.00 0.00 47 1008.5
20260509195056 71 0 0.0 0.0 0.00 0.00 0.00 49 1008.5
20260509194554 71 0 0.0 0.0 0.00 0.00 0.00 51 1008.6
20260509194130 70 0 0.0 0.0 0.00 0.00 0.00 51 1008.7
20260509193555 70 0 0.0 0.0 0.00 0.00 0.00 52 1008.9
20260509193059 70 0 0.0 0.0 0.00 0.00 0.00 50 1008.9
20260509192557 70 0 0.0 0.0 0.00 0.00 0.00 49 1008.9
20260509192055 70 0 0.0 0.0 0.00 0.00 0.00 49 1008.9
20260509191606 70 0 0.0 0.0 0.00 0.00 0.00 50 1008.9
20260509191057 70 0 0.0 1.7 0.00 0.00 0.00 51 1009.0
20260509190557 70 0 0.0 2.6 0.00 0.00 0.00 50 1009.2
20260509190056 69 207 0.0 2.6 0.00 0.00 0.00 50 1009.3
20260509185556 69 218 0.0 1.7 0.00 0.00 0.00 53 1009.3
20260509185055 69 0 0.0 1.7 0.00 0.00 0.00 52 1009.4
20260509184559 69 0 0.0 1.7 0.00 0.00 0.00 52 1009.5
20260509184054 69 0 0.0 0.9 0.00 0.00 0.00 50 1009.6
20260509183554 70 0 0.0 1.7 0.00 0.00 0.00 50 1009.6
20260509183059 70 0 0.0 1.7 0.00 0.00 0.00 50 1009.7
20260509182557 70 219 0.0 2.6 0.00 0.00 0.00 48 1009.8
20260509182054 70 0 0.0 2.6 0.00 0.00 0.00 48 1009.8
20260509181554 71 153 0.9 2.6 0.00 0.00 0.00 47 1009.9
20260509181055 71 153 0.9 2.6 0.00 0.00 0.00 48 1009.9
20260509180555 71 153 0.9 2.6 0.00 0.00 0.00 49 1010.0
20260509180055 71 153 0.9 2.6 0.00 0.00 0.00 48 1010.1
20260509175554 70 0 0.9 4.3 0.00 0.00 0.00 49 1010.2
20260509175055 70 153 1.7 4.3 0.00 0.00 0.00 48 1010.2
20260509174616 69 153 0.9 2.6 0.00 0.00 0.00 51 1010.1
20260509174056 68 153 0.9 2.6 0.00 0.00 0.00 49 1010.3
20260509173553 68 153 0.0 2.6 0.00 0.00 0.00 52 1010.4
20260509173059 68 153 0.0 2.6 0.00 0.00 0.00 50 1010.5
20260509172557 68 0 0.9 2.6 0.00 0.00 0.00 51 1010.5
20260509172055 68 153 0.9 2.6 0.00 0.00 0.00 51 1010.6
20260509171555 68 0 0.9 2.6 0.00 0.00 0.00 49 1010.4
20260509171054 68 153 0.9 2.6 0.00 0.00 0.00 49 1010.4
20260509170554 68 153 0.0 2.6 0.00 0.00 0.00 50 1010.4
20260509170059 68 0 0.0 0.0 0.00 0.00 0.00 50 1010.4
20260509165554 67 0 0.0 0.0 0.00 0.00 0.00 50 1010.4
20260509165054 67 0 0.0 1.7 0.00 0.00 0.00 51 1010.5
20260509164554 67 0 0.0 2.6 0.00 0.00 0.00 50 1010.5
20260509164053 67 153 0.0 2.6 0.00 0.00 0.00 50 1010.6
20260509163554 67 153 0.9 2.6 0.00 0.00 0.00 50 1010.6
20260509163056 67 153 0.9 2.6 0.00 0.00 0.00 50 1010.6
20260509162555 67 153 0.9 2.6 0.00 0.00 0.00 49 1010.7
20260509162055 68 153 0.0 1.7 0.00 0.00 0.00 50 1010.7
20260509161602 68 0 0.0 1.7 0.00 0.00 0.00 51 1010.7
20260509161057 68 153 0.0 2.6 0.00 0.00 0.00 49 1010.6
20260509160555 68 153 0.9 5.2 0.00 0.00 0.00 49 1010.5
20260509155556 68 153 1.7 5.2 0.00 0.00 0.00 47 1010.6
20260509155054 69 146 0.9 4.3 0.00 0.00 0.00 47 1010.6
20260509154556 69 146 0.9 5.2 0.00 0.00 0.00 46 1010.8
20260509154054 69 159 1.7 5.2 0.00 0.00 0.00 47 1010.8
20260509153556 68 178 2.6 5.2 0.00 0.00 0.00 49 1011.0